VA2EYZ-13 Weather Reports


Display with metric or nautical units.
time (UTC)temp
F
wind
direction
speed
MPH
gust
MPH
rain 1hr
in
rain 24hr
in
rain mn
in
humidity
%
barometer
mb
20260507020559 48 0.0 0.0 0.00 0.00 0.00 42 1009.7
20260507012901 49 0.0 0.0 0.00 0.00 0.00 41 1009.7
20260507010559 49 0.0 0.0 0.00 0.00 0.00 41 1009.0
20260507004803 49 0.0 0.0 0.00 0.00 0.00 38 1009.0
20260507003433 49 0.0 0.0 0.00 0.00 0.00 38 1009.4
20260507000559 49 0.0 0.0 0.00 0.00 0.00 38 1009.0
20260506235847 49 0.0 0.0 0.00 0.00 0.00 38 1008.0
20260506233652 49 0.0 0.0 0.00 0.00 0.00 38 1009.0
20260506233037 49 0.0 0.0 0.00 0.00 0.00 38 1009.0
20260506230344 49 0.0 0.0 0.00 0.00 0.00 38 1008.0
20260506225437 49 0.0 0.0 0.00 0.00 0.00 38 1008.0
20260506220343 49 0.0 0.0 0.00 0.00 0.00 38 1008.7
20260506211447 49 0.0 0.0 0.00 0.00 0.00 39 1008.7
20260506205856 49 0.0 0.0 0.00 0.00 0.00 40 1008.0
20260506204844 49 0.0 0.0 0.00 0.00 0.00 40 1009.0
20260506204244 49 0.0 0.0 0.00 0.00 0.00 40 1009.0
20260506203458 49 0.0 0.0 0.00 0.00 0.00 40 1008.0
20260506202844 49 0.0 0.0 0.00 0.00 0.00 40 1009.0
20260506201625 49 0.0 0.0 0.00 0.00 0.00 38 1009.0
20260506195844 49 0.0 0.0 0.00 0.00 0.00 40 1009.0
20260506194019 49 0.0 0.0 0.00 0.00 0.00 40 1009.0
20260506193344 49 0.0 0.0 0.00 0.00 0.00 40 1009.4
20260506192438 48 0.0 0.0 0.00 0.00 0.00 40 1009.4
20260506190343 48 0.0 0.0 0.00 0.00 0.00 40 1009.0
20260506184007 48 0.0 0.0 0.00 0.00 0.00 40 1009.0
20260506182931 48 0.0 0.0 0.00 0.00 0.00 40 1009.2
20260506182344 48 0.0 0.0 0.00 0.00 0.00 40 1009.0
20260506181343 48 0.0 0.0 0.00 0.00 0.00 41 1009.0
20260506173844 48 0.0 0.0 0.00 0.00 0.00 40 1009.0
20260506173317 47 0.0 0.0 0.00 0.00 0.00 40 1009.7
20260506172159 47 0.0 0.0 0.00 0.00 0.00 40 1009.0
20260506171302 47 0.0 0.0 0.00 0.00 0.00 40 1010.0
20260506170343 47 0.0 0.0 0.00 0.00 0.00 40 1010.2
20260506163657 47 0.0 0.0 0.00 0.00 0.00 44 1010.2
20260506160001 47 0.0 0.0 0.00 0.00 0.00 44 1010.0
20260506153705 47 0.0 0.0 0.00 0.00 0.00 44 1010.7
20260506150343 47 0.0 0.0 0.00 0.00 0.00 44 1010.8
20260506145343 47 0.0 0.0 0.00 0.00 0.00 44 1010.8
20260506144508 47 0.0 0.0 0.00 0.00 0.00 46 1010.8
20260506141841 47 0.0 0.0 0.00 0.00 0.00 46 1010.0
20260506140341 47 0.0 0.0 0.00 0.00 0.00 46 1010.0
20260506135305 47 0.0 0.0 0.00 0.00 0.00 45 1010.8
20260506133448 47 0.0 0.0 0.00 0.00 0.00 45 1010.0
20260506125521 48 0.0 0.0 0.00 0.00 0.00 44 1010.6
20260506123326 48 0.0 0.0 0.00 0.00 0.00 44 1010.0
20260506120405 48 0.0 0.0 0.00 0.00 0.00 44 1010.8
20260506115619 48 0.0 0.0 0.00 0.00 0.00 45 1010.8
20260506115035 48 0.0 0.0 0.00 0.00 0.00 46 1010.0
20260506111742 48 0.0 0.0 0.00 0.00 0.00 46 1011.0
20260506110405 48 0.0 0.0 0.00 0.00 0.00 46 1011.0
20260506105142 49 0.0 0.0 0.00 0.00 0.00 42 1011.0
20260506104205 49 0.0 0.0 0.00 0.00 0.00 42 1010.0
20260506100405 49 0.0 0.0 0.00 0.00 0.00 42 1010.0
20260506094123 49 0.0 0.0 0.00 0.00 0.00 40 1010.0
20260506093508 49 0.0 0.0 0.00 0.00 0.00 40 1009.0
20260506092813 49 0.0 0.0 0.00 0.00 0.00 40 1010.0
20260506091948 49 0.0 0.0 0.00 0.00 0.00 40 1009.0
20260506091341 49 0.0 0.0 0.00 0.00 0.00 40 1009.8
20260506090405 49 0.0 0.0 0.00 0.00 0.00 40 1009.0
20260506083807 50 0.0 0.0 0.00 0.00 0.00 39 1009.0
20260506081341 50 0.0 0.0 0.00 0.00 0.00 39 1010.0
20260506080405 50 0.0 0.0 0.00 0.00 0.00 39 1009.0
20260506072322 50 0.0 0.0 0.00 0.00 0.00 39 1010.0
20260506071325 50 0.0 0.0 0.00 0.00 0.00 39 1009.8
20260506070405 50 0.0 0.0 0.00 0.00 0.00 39 1009.0
20260506062117 50 0.0 0.0 0.00 0.00 0.00 40 1009.0
20260506061514 50 0.0 0.0 0.00 0.00 0.00 40 1009.4
20260506060404 50 0.0 0.0 0.00 0.00 0.00 40 1009.0
20260506045019 51 0.0 0.0 0.00 0.00 0.00 42 1009.0
20260506042918 51 0.0 0.0 0.00 0.00 0.00 42 1009.0
20260506042414 51 0.0 0.0 0.00 0.00 0.00 42 1008.8
20260506040518 51 0.0 0.0 0.00 0.00 0.00 42 1008.0
20260506035724 51 0.0 0.0 0.00 0.00 0.00 42 1008.0
20260506035018 51 0.0 0.0 0.00 0.00 0.00 42 1007.9
20260506033307 51 0.0 0.0 0.00 0.00 0.00 40 1007.9
20260506030518 51 0.0 0.0 0.00 0.00 0.00 40 1007.0
20260506024050 53 0.0 0.0 0.00 0.00 0.00 38 1007.4